Tracking 30970 objects as of 3-Jul-2025
HD Live streaming from Space Station
objects crossing your sky now

OBJECT A

Track OBJECT A now!
10-day predictions


NORAD ID: 58502
Int'l Code: 2023-189A
Perigee: 475.3 km
Apogee: 494.1 km
Inclination: 97.5 °
Period: 94.2 minutes
Semi major axis: 6855 km
RCS: Unknown
Launch date: December 4, 2023
Source: People's Republic of China (PRC)
Launch site: Jiuquan Satellite Launch Center, China (JSC)
Your satellite tracking list
Your tracking list is empty




NASA's NSSDC Master Catalog

Two Line Element Set (TLE):
1 58502U 23189A   25183.93022325  .00003774  00000-0  13473-3 0  9990
2 58502  97.4535 195.5651 0013690  65.5639 294.7027 15.29407097 87763
Source of the keplerian elements: AFSPC